Terminal Aerodrome Forecast
Issued by NWS

Home | Current Version | Previous Version | Text Only | Print | Product List | Glossary On
Versions: 1 2 3 4 5 6 7 8 9 10 11 12
000
FTUS42 KTBW 040529
TAFPGD
TAF
KPGD 040529Z 0406/0506 VRB03KT P6SM BKN200
     FM041400 13006KT P6SM FEW025 SCT250
     FM041700 16006KT P6SM VCTS SCT030CB BKN250
     FM042000 24008KT P6SM VCTS SCT040CB BKN250
     FM042300 10007KT P6SM VCTS SCT050CB BKN200
     FM050200 09003KT P6SM SCT050 BKN250=

USA.gov is the U.S. government's official web portal to all federal, state and local government web resources and services.